User: anonymous   Login
Location: Caltech
(34.1382°N, 118.1253°W)
Time: 03:14:46
(UTC-07:00)
Language:

Lacrosse 5 - Orbit

View from above orbital plane
View from above orbital plane
View from above satellite
View from above satellite

Ground track
Ground track

The orbit data is extracted from the following two-line orbital elements,

1 28646U 05016A   17231.00137936 0.00000000  00000-0  00000-0 0    04
2 28646  57.0130 251.9990 0002500 119.3330 240.6669 14.51914232    01
Epoch (UTC): 19 August 2017 00:01:59
Eccentricity: 0.0002500
inclination: 57.0130°
perigee height: 717 km
apogee height: 721 km
right ascension of ascending node: 251.9990°
argument of perigee: 119.3330°
revolutions per day: 14.51914232
mean anomaly at epoch: 240.6669°
orbit number at epoch: 0

The dashed part of the orbit path shows where the satellite is in the earth's shadow,  

DLR